User: anonymous   Login
Location: Unspecified
(0.0000°N, 0.0000°E)
Time: 00:52:49
(UTC+00:00)
Language:

AUBIESAT-1 - Orbit

View from above orbital plane
View from above orbital plane
View from above satellite
View from above satellite

Ground track
Ground track

The orbit data is extracted from the following two-line orbital elements,

1 37854U 11061E   17084.82374187 +.00001335 +00000-0 +79807-4 0  9993
2 37854 101.7113 276.0207 0168540 321.6472 037.2851 15.03742220293956
Epoch (UTC): 25 March 2017 19:46:11
Eccentricity: 0.0168540
inclination: 101.7113°
perigee height: 438 km
apogee height: 672 km
right ascension of ascending node: 276.0207°
argument of perigee: 321.6472°
revolutions per day: 15.03742220
mean anomaly at epoch: 37.2851°
orbit number at epoch: 29395

The dashed part of the orbit path shows where the satellite is in the earth's shadow,  

DLR